{"data":{"norad_id":59329,"epoch":"2026-05-25T05:06:21.572352Z","epoch_age_seconds":59958,"freshness":"FRESH","line1":"1 59329U 24057K   26145.21274968  .00000842  00000+0  40111-4 0  9997","line2":"2 59329  43.0005 114.7967 0001061 269.9752  90.0978 15.27574867121543","mean_motion":15.27574867,"eccentricity":0.0001061,"inclination_deg":43.0005,"raan_deg":114.7967,"arg_perigee_deg":269.9752,"mean_anomaly_deg":90.0978,"bstar":4.0111e-5,"rev_number":12154,"period_min":94.26706547143,"perigee_km":482.33649265572,"apogee_km":483.79243960684,"semimajor_km":6861.2014661313,"source":"CELESTRAK","updated_at":"2026-05-25T13:38:18.904507Z"}}